TimeMST,TemperatureF,Dew PointF,Humidity,Sea Level PressureIn,VisibilityMPH,Wind Direction,Wind SpeedMPH,Gust SpeedMPH,PrecipitationIn,Events,Conditions,WindDirDegrees,DateUTC
12:56 AM,16.0,7.0,68,30.33,10.0,WNW,4.6,-,N/A,,Clear,300,2013-01-03 07:56:00
1:56 AM,12.9,6.1,74,30.35,10.0,WNW,3.5,-,N/A,,Clear,300,2013-01-03 08:56:00
2:56 AM,12.0,5.0,73,30.36,10.0,Calm,Calm,-,N/A,,Clear,0,2013-01-03 09:56:00
3:56 AM,12.9,6.1,74,30.37,10.0,Calm,Calm,-,N/A,,Clear,0,2013-01-03 10:56:00
4:56 AM,9.0,3.9,80,30.38,10.0,WSW,6.9,-,N/A,,Clear,250,2013-01-03 11:56:00
5:56 AM,10.0,5.0,80,30.41,10.0,WNW,4.6,-,N/A,,Clear,290,2013-01-03 12:56:00
6:56 AM,10.0,3.9,76,30.43,10.0,Calm,Calm,-,N/A,,Clear,0,2013-01-03 13:56:00
7:56 AM,6.1,1.0,80,30.49,10.0,WSW,4.6,-,N/A,,Clear,250,2013-01-03 14:56:00
8:56 AM,18.0,9.0,68,30.48,10.0,WNW,4.6,-,N/A,,Clear,290,2013-01-03 15:56:00
9:56 AM,23.0,10.9,60,30.47,10.0,NW,6.9,-,N/A,,Clear,310,2013-01-03 16:56:00
10:56 AM,27.0,9.0,47,30.48,10.0,North,5.8,-,N/A,,Clear,350,2013-01-03 17:56:00
11:56 AM,28.9,9.0,43,30.43,10.0,North,5.8,-,N/A,,Clear,10,2013-01-03 18:56:00
12:56 PM,30.9,9.0,40,30.39,10.0,Calm,Calm,-,N/A,,Clear,0,2013-01-03 19:56:00
1:56 PM,34.0,10.0,37,30.37,10.0,North,5.8,-,N/A,,Clear,350,2013-01-03 20:56:00
2:56 PM,34.0,10.0,37,30.37,10.0,NNW,4.6,-,N/A,,Clear,340,2013-01-03 21:56:00
3:56 PM,34.0,10.0,37,30.36,10.0,Variable,5.8,-,N/A,,Clear,0,2013-01-03 22:56:00
4:56 PM,33.1,10.0,38,30.38,10.0,NW,6.9,-,N/A,,Clear,310,2013-01-03 23:56:00
5:56 PM,25.0,8.1,49,30.40,10.0,NW,4.6,-,N/A,,Clear,310,2013-01-04 00:56:00
6:56 PM,24.1,9.0,53,30.42,10.0,WNW,6.9,-,N/A,,Clear,300,2013-01-04 01:56:00
7:56 PM,19.9,7.0,57,30.47,10.0,Calm,Calm,-,N/A,,Clear,0,2013-01-04 02:56:00
8:56 PM,17.1,7.0,65,30.44,10.0,Variable,3.5,-,N/A,,Clear,0,2013-01-04 03:56:00
9:56 PM,16.0,7.0,68,30.44,10.0,SSW,3.5,-,N/A,,Clear,200,2013-01-04 04:56:00
10:56 PM,16.0,7.0,68,30.44,10.0,SE,4.6,-,N/A,,Clear,130,2013-01-04 05:56:00
11:56 PM,12.9,5.0,71,30.45,10.0,SSW,8.1,-,N/A,,Clear,210,2013-01-04 06:56:00